Zurück zum Katalog

GALILEO 11 (268)

AktivNavigationMEO
NORAD 41175·PAYLOAD·🇪🇺 EU

Gestartet Dec 17, 2015 von Guiana Space Centre

Loading…

Nächste Überflüge (nächste 24 Stunden)

TLE

AktuellSource: CelesTrak SupGP

Epoche: Sep 13, 2026, 23:59 UTC

1 41175C 15079B   26256.99979167  .00000000  00000+0  00000+0 0  2562
2 41175  55.8817  98.8205 0003232  28.2266  73.7028  1.70474012    16

Verfolge GALILEO 11 (268) in Echtzeit mit AllMySat

Download on the App Store